Location: Sigmaringen
(48.0900°N, 9.2120°E)
Time: 08:44:03
(UTC+02:00)

ISS - Visible Passes

Search period start: 24 September 2017 00:00
Search period end: 04 October 2017 00:00
Orbit: 401 x 407 km, 51.6° (Epoch: 24 September)

Date Brightness Start Highest point End Pass type
(mag) Time Alt. Az. Time Alt. Az. Time Alt. Az.
25 Sep -1.5 21:18:42 10° SW 21:19:31 16° SSW 21:19:31 16° SSW visible
26 Sep -2.6 20:26:53 10° SSW 20:29:36 24° SE 20:29:53 24° SE visible
26 Sep -0.6 22:02:33 10° WSW 22:02:34 10° WSW 22:02:34 10° WSW visible
27 Sep -3.2 21:10:13 10° WSW 21:12:44 49° SW 21:12:44 49° SW visible
28 Sep -3.5 20:18:01 10° SW 20:21:11 46° SSE 20:22:45 25° E visible
28 Sep -1.0 21:54:26 10° W 21:55:25 18° W 21:55:25 18° W visible
29 Sep -3.7 21:01:57 10° WSW 21:05:14 68° NNW 21:05:17 68° N visible
30 Sep -3.9 20:09:33 10° WSW 20:12:49 85° SSE 20:15:03 19° ENE visible
30 Sep -1.2 21:46:21 10° WNW 21:47:42 21° WNW 21:47:42 21° WNW visible
01 Oct -3.2 20:53:48 10° W 20:57:00 49° N 20:57:23 46° NNE visible
02 Oct -3.5 20:01:17 10° W 20:04:31 61° NNW 20:07:01 16° ENE visible
02 Oct -1.4 21:38:08 10° WNW 21:39:39 23° WNW 21:39:39 23° WNW visible
03 Oct -3.0 20:45:37 10° WNW 20:48:46 42° N 20:49:14 39° NNE visible
